Vorticity
nan nan nan nan nan nan nan nan nan nan nan nan nan nan nan nan nan nan nan nan nan nan nan nan nan nan nan nan nan nan nan nan nan nan nan nan nan nan nan nan nan nan nan
nan 9 8 5 5 4 6 7 5 3 3 5 7 4 4 4 4 6 6 9 8 9 8 7 7 7 7 6 6 6 6 4 4 3 5 4 3 5 4 7 9 8 nan
nan 7 9 7 4 4 4 6 7 4 5 6 6 4 4 3 2 7 7 8 8 8 9 7 7 7 6 5 5 6 5 4 3 5 5 7 5 6 6 6 6 7 nan
nan 5 9 8 5 4 4 4 6 7 6 7 7 5 4 6 5 4 7 7 8 7 7 7 5 6 8 7 6 5 4 3 3 5 6 9 8 7 6 6 7 6 nan
nan 8 11 9 6 6 5 6 5 7 9 8 9 8 7 8 8 6 8 8 6 6 4 7 5 5 7 7 6 4 3 3 3 3 7 10 8 6 6 7 7 7 nan
nan 9 13 17 10 10 10 9 6 10 11 11 8 8 8 6 7 4 5 7 6 6 6 3 4 6 9 9 5 4 3 3 3 4 5 6 9 8 6 7 6 8 nan
nan 7 11 13 9 8 11 12 15 14 16 18 22 26 16 10 9 4 3 4 6 5 7 5 4 5 9 11 7 4 4 3 4 6 5 4 9 6 5 5 6 7 nan
nan 7 8 4 5 4 11 22 20 7 13 13 14 20 21 15 9 7 7 6 5 5 6 5 5 6 7 9 7 5 4 4 5 5 6 7 11 6 5 5 7 6 nan
nan 6 6 8 7 6 7 17 18 10 3 3 4 -0 2 9 6 5 6 7 5 5 6 5 6 5 6 7 7 5 4 5 5 6 6 9 10 6 7 7 5 5 nan
nan 7 5 7 7 7 7 6 6 12 10 6 2 3 1 -2 -0 3 5 6 6 5 5 6 6 6 6 7 6 4 3 -1 5 6 6 13 9 7 6 7 5 3 nan
nan 8 6 6 5 8 9 7 4 1 -1 0 2 1 -1 1 3 6 7 6 7 5 5 7 6 4 4 3 1 1 -1 2 6 6 10 16 7 6 5 5 6 6 nan
nan 6 7 6 5 6 5 4 4 2 2 2 2 0 3 8 6 6 7 4 2 4 2 3 2 -1 1 2 1 1 3 8 6 7 13 11 8 6 5 4 4 6 nan
nan 6 8 5 5 6 6 6 6 5 5 6 8 7 7 5 5 6 4 2 3 2 2 4 3 4 6 8 8 5 8 7 8 8 12 7 5 7 7 6 6 4 nan
nan 5 7 7 5 4 7 7 7 8 7 7 6 7 6 7 7 7 7 7 7 6 9 6 6 7 7 9 8 8 8 8 8 9 7 9 8 6 6 7 7 6 nan
nan 5 6 6 5 5 6 7 8 8 8 9 5 6 8 7 6 6 7 7 8 7 7 8 8 8 6 7 8 7 6 7 9 10 7 5 9 8 7 5 6 6 nan
nan 6 7 6 6 5 5 6 6 7 9 8 8 8 6 6 7 7 7 6 6 9 9 8 8 6 8 8 8 6 7 6 7 10 9 4 4 7 7 7 7 7 nan
nan 6 7 6 7 7 6 5 6 6 6 7 9 9 9 7 7 6 7 8 7 7 7 7 7 8 7 7 7 7 7 7 8 8 8 5 5 5 6 6 7 7 nan
nan 8 6 7 7 6 6 5 6 7 7 7 8 9 8 7 8 7 7 7 8 7 7 8 6 6 7 7 6 7 7 7 7 7 7 7 7 5 5 7 7 7 nan
nan 7 7 8 7 5 5 7 9 8 7 7 7 8 9 9 8 7 7 9 8 8 9 7 7 8 7 6 8 8 8 8 7 7 7 8 7 7 7 6 3 4 nan
nan 10 7 9 8 5 4 5 7 8 8 9 8 9 8 7 7 8 9 8 7 8 7 9 8 8 9 8 7 6 7 8 9 8 7 7 7 7 8 5 5 6 nan
nan 10 8 8 6 4 6 6 7 8 6 8 10 10 9 8 8 7 7 8 8 9 10 7 7 7 7 7 5 5 8 9 9 7 7 7 7 6 7 6 7 7 nan
nan 9 8 9 7 5 7 7 9 9 7 9 9 9 9 9 8 8 8 8 8 8 7 7 8 4 8 8 5 8 6 5 9 9 7 8 7 7 7 7 8 7 nan
nan 17 11 9 7 7 6 5 8 7 9 9 9 9 9 10 9 7 8 7 9 8 8 8 7 7 7 8 9 8 9 10 6 8 9 9 7 7 8 7 7 7 nan
nan 20 18 11 10 9 6 8 8 5 6 7 9 10 11 9 9 9 8 9 7 8 11 8 6 8 9 8 7 7 10 13 8 7 9 10 9 9 7 7 8 8 nan
nan 15 18 15 11 9 8 7 6 7 8 11 10 8 8 9 10 10 9 10 8 9 9 9 10 8 8 10 8 7 6 8 10 11 10 8 9 9 9 9 8 8 nan
nan nan nan nan nan nan nan nan nan nan nan nan nan nan nan nan nan nan nan nan nan nan nan nan nan nan nan nan nan nan nan nan nan nan nan nan nan nan nan nan nan nan nan
CAPE
0 0 209 508 725 824 1327 1430 1294 1242 1401 1345 1410 1715 1596 1767 1683 1675 1636 1616 1639 1400 1343 1453 1438 1492 1285 1223 1131 1027 996 967 846 858 898 1024 972 800 943 943 1056 790 1100
0 0 117 387 628 846 1015 1526 1312 917 1041 1162 1272 1271 1233 1623 1546 1630 1663 1654 1613 1480 1378 1302 1318 1366 1245 1182 1080 937 797 884 827 719 584 664 899 899 768 821 997 878 1000
0 0 2 232 541 695 960 1211 1391 1181 1051 1346 1204 1012 1031 969 1064 1459 1545 1599 1473 1411 1216 1042 1063 1177 1053 992 921 811 679 559 397 534 409 189 302 613 633 716 764 692 706
0 0 0 113 479 487 792 1112 1259 1305 1228 1262 1230 955 1114 851 771 1370 1336 1474 1318 1074 925 908 775 765 809 787 729 577 315 70 16 0 0 86 228 670 707 520 429 500 518
0 22 188 443 518 675 895 1145 1188 1087 1070 1149 964 887 1146 936 896 1122 1215 1176 1046 802 489 409 332 339 420 450 426 216 65 2 1 0 0 0 113 408 673 528 592 573 581
8 101 578 885 1025 843 654 722 942 827 811 809 715 640 896 887 902 963 882 988 950 413 166 123 139 42 34 259 255 33 0 0 0 0 0 0 3 366 455 483 488 506 499
11 53 549 991 582 412 290 527 758 520 590 559 574 607 790 794 633 385 354 280 224 164 104 24 16 2 0 232 6 0 0 0 0 0 0 0 0 138 272 240 230 269 286
0 3 4 414 346 151 377 841 587 393 270 82 33 149 257 36 55 143 175 165 136 73 44 6 5 0 0 0 0 0 0 0 0 0 0 0 9 16 11 3 16 50 48
4 15 4 0 10 85 511 602 685 366 56 15 5 3 17 41 51 67 171 128 104 50 23 6 1 0 0 0 0 0 0 0 0 0 0 0 16 10 9 10 17 21 22
4 5 4 1 0 0 19 38 18 17 46 15 12 1 8 12 36 58 58 45 42 11 1 1 0 0 0 0 0 0 0 0 0 0 0 0 6 8 8 9 15 16 18
0 4 3 0 0 0 0 23 27 21 18 17 21 15 10 0 0 2 25 6 1 1 0 0 0 0 0 0 0 0 0 0 0 0 0 13 11 17 21 26 27 16 21
0 1 3 0 0 0 0 0 0 5 0 0 0 0 0 0 0 0 0 3 0 0 0 0 0 0 0 0 0 0 0 0 0 0 2 44 29 33 28 21 13 14 17
0 0 1 0 0 0 0 0 0 0 0 0 0 0 0 0 0 0 0 0 0 0 0 0 0 0 0 0 0 0 0 0 0 0 14 24 14 16 13 7 5 11 9
0 0 0 0 0 0 0 0 0 0 0 0 0 0 0 0 0 0 0 0 0 0 0 0 0 0 0 0 0 0 0 0 0 0 6 22 9 18 10 14 8 5 5
0 0 0 0 0 0 0 0 0 0 0 0 0 0 0 0 0 0 0 0 0 0 0 0 0 0 0 0 0 0 0 0 0 0 0 2 1 7 13 13 14 12 10
0 0 0 0 0 0 0 0 0 0 0 0 0 0 0 0 0 0 0 0 0 0 0 0 0 0 0 0 0 0 0 0 0 0 0 0 2 5 9 10 9 9 9
0 0 0 0 0 0 0 0 0 0 0 0 0 0 0 0 0 0 0 0 0 0 0 0 0 0 0 0 0 0 0 0 0 0 0 0 0 0 0 0 1 2 3
0 0 0 0 0 0 0 0 0 0 0 0 0 0 0 0 0 0 0 0 0 0 0 0 0 0 0 0 0 0 0 0 0 0 0 0 0 0 0 0 0 0 0
0 0 0 0 0 0 0 0 0 0 0 0 0 0 0 0 0 0 0 0 0 0 0 0 0 0 0 0 0 0 0 0 0 0 0 0 0 0 0 0 0 0 0
0 0 0 0 0 0 0 0 0 0 0 0 0 0 0 0 0 0 0 0 0 0 0 0 0 0 0 0 0 0 0 0 0 0 0 0 0 0 0 0 0 0 0
0 0 0 0 0 0 0 0 0 0 0 0 0 0 0 0 0 0 0 0 0 0 0 0 0 0 0 0 0 0 0 0 0 0 0 0 0 0 0 0 0 0 0
0 0 0 0 0 0 0 0 0 0 0 0 0 0 0 0 0 0 0 0 0 0 0 0 0 0 0 0 0 0 0 0 0 0 0 0 0 0 0 0 0 0 0
0 0 0 0 0 0 0 0 0 0 0 0 0 0 0 0 0 0 0 0 0 0 0 0 0 0 0 0 0 0 0 0 0 0 0 0 0 0 0 0 0 0 0
0 0 0 0 0 0 0 0 0 0 0 0 0 0 0 0 0 0 0 0 0 0 0 0 0 0 0 0 0 0 0 0 0 0 0 0 0 0 0 0 0 0 0
0 0 0 0 0 0 0 0 0 0 0 0 0 0 0 0 0 0 0 0 0 0 0 0 0 0 0 0 0 0 0 0 0 0 0 0 0 0 0 0 0 0 0
0 0 0 0 0 0 0 0 0 0 0 0 0 0 0 0 0 0 0 0 0 0 0 0 0 0 0 0 0 0 0 0 0 0 0 0 0 0 0 0 0 0 0